TimeMST,TemperatureF,Dew PointF,Humidity,Sea Level PressureIn,VisibilityMPH,Wind Direction,Wind SpeedMPH,Gust SpeedMPH,PrecipitationIn,Events,Conditions,WindDirDegrees,DateUTC
12:15 AM,15.8,10.4,79,30.32,10.0,WNW,11.5,-,N/A,,Clear,290,2013-02-15 07:15:00
12:35 AM,17.6,10.4,73,30.32,10.0,WNW,10.4,-,N/A,,Mostly Cloudy,290,2013-02-15 07:35:00
12:55 AM,15.8,10.4,79,30.32,10.0,WNW,9.2,-,N/A,,Mostly Cloudy,300,2013-02-15 07:55:00
1:15 AM,15.8,8.6,73,30.32,10.0,NW,6.9,-,N/A,,Partly Cloudy,310,2013-02-15 08:15:00
1:35 AM,15.8,10.4,79,30.32,10.0,WNW,9.2,-,N/A,,Partly Cloudy,300,2013-02-15 08:35:00
1:55 AM,15.8,8.6,73,30.33,10.0,WNW,9.2,-,N/A,,Scattered Clouds,290,2013-02-15 08:55:00
2:15 AM,15.8,8.6,73,30.32,10.0,West,8.1,-,N/A,,Scattered Clouds,280,2013-02-15 09:15:00
2:35 AM,15.8,10.4,79,30.33,10.0,West,6.9,-,N/A,,Mostly Cloudy,280,2013-02-15 09:35:00
2:55 AM,15.8,8.6,73,30.33,10.0,WNW,3.5,-,N/A,,Mostly Cloudy,290,2013-02-15 09:55:00
3:15 AM,14.0,8.6,79,30.32,10.0,Calm,Calm,-,N/A,,Partly Cloudy,0,2013-02-15 10:15:00
3:55 AM,12.2,8.6,85,30.34,10.0,SW,4.6,-,N/A,,Mostly Cloudy,220,2013-02-15 10:55:00
4:15 AM,14.0,8.6,79,30.34,10.0,Calm,Calm,-,N/A,,Scattered Clouds,0,2013-02-15 11:15:00
4:35 AM,15.8,12.2,86,30.35,10.0,ENE,3.5,-,N/A,,Mostly Cloudy,70,2013-02-15 11:35:00
4:55 AM,15.8,8.6,73,30.36,10.0,Calm,Calm,-,N/A,,Overcast,0,2013-02-15 11:55:00
5:15 AM,17.6,10.4,73,30.36,10.0,Calm,Calm,-,N/A,,Overcast,0,2013-02-15 12:15:00
5:35 AM,15.8,10.4,79,30.36,10.0,Calm,Calm,-,N/A,,Overcast,0,2013-02-15 12:35:00
5:55 AM,15.8,10.4,79,30.36,10.0,South,3.5,-,N/A,,Overcast,180,2013-02-15 12:55:00
6:15 AM,15.8,10.4,79,30.36,10.0,Calm,Calm,-,N/A,,Scattered Clouds,0,2013-02-15 13:15:00
6:35 AM,15.8,10.4,79,30.37,10.0,NW,3.5,-,N/A,,Clear,310,2013-02-15 13:35:00
6:55 AM,12.2,10.4,92,30.37,10.0,WNW,3.5,-,N/A,,Clear,290,2013-02-15 13:55:00
7:15 AM,12.2,8.6,85,30.37,10.0,Calm,Calm,-,N/A,,Clear,0,2013-02-15 14:15:00
7:35 AM,10.4,8.6,92,30.38,10.0,Calm,Calm,-,N/A,,Clear,0,2013-02-15 14:35:00
7:55 AM,14.0,12.2,93,30.38,10.0,Calm,Calm,-,N/A,,Clear,0,2013-02-15 14:55:00
8:15 AM,15.8,10.4,79,30.38,10.0,Calm,Calm,-,N/A,,Partly Cloudy,0,2013-02-15 15:15:00
8:35 AM,17.6,12.2,79,30.39,10.0,Calm,Calm,-,N/A,,Scattered Clouds,0,2013-02-15 15:35:00
8:55 AM,17.6,12.2,79,30.39,10.0,Calm,Calm,-,N/A,,Partly Cloudy,0,2013-02-15 15:55:00
9:15 AM,19.4,12.2,74,30.38,10.0,Calm,Calm,-,N/A,,Clear,0,2013-02-15 16:15:00
9:55 AM,21.2,14.0,74,30.38,10.0,South,4.6,-,N/A,,Clear,180,2013-02-15 16:55:00
10:55 AM,23.0,15.8,74,30.36,10.0,South,6.9,-,N/A,,Clear,180,2013-02-15 17:55:00
11:15 AM,24.8,15.8,69,30.36,10.0,South,6.9,-,N/A,,Clear,190,2013-02-15 18:15:00
11:35 AM,24.8,15.8,69,30.35,10.0,SSW,6.9,-,N/A,,Clear,200,2013-02-15 18:35:00
11:55 AM,26.6,17.6,69,30.34,10.0,SW,5.8,-,N/A,,Clear,220,2013-02-15 18:55:00
12:15 PM,26.6,17.6,69,30.33,10.0,South,6.9,-,N/A,,Clear,190,2013-02-15 19:15:00
12:35 PM,28.4,17.6,64,30.32,10.0,South,8.1,-,N/A,,Clear,170,2013-02-15 19:35:00
12:55 PM,28.4,19.4,69,30.31,10.0,SSW,6.9,-,N/A,,Clear,200,2013-02-15 19:55:00
1:15 PM,30.2,19.4,64,30.30,10.0,South,8.1,-,N/A,,Clear,180,2013-02-15 20:15:00
1:35 PM,30.2,19.4,64,30.29,10.0,SSW,6.9,-,N/A,,Clear,200,2013-02-15 20:35:00
1:55 PM,32.0,17.6,55,30.27,10.0,South,9.2,-,N/A,,Clear,190,2013-02-15 20:55:00
2:15 PM,32.0,17.6,55,30.26,10.0,South,6.9,-,N/A,,Clear,180,2013-02-15 21:15:00
2:35 PM,32.0,19.4,60,30.27,10.0,SSW,5.8,-,N/A,,Clear,210,2013-02-15 21:35:00
2:55 PM,33.8,17.6,52,30.27,10.0,WSW,6.9,-,N/A,,Clear,250,2013-02-15 21:55:00
3:15 PM,32.0,17.6,55,30.24,10.0,SW,5.8,-,N/A,,Clear,230,2013-02-15 22:15:00